Regional Weather Roundup
Issued by NWS

Home | Current Version | Previous Version | Text Only | Print | Product List | Glossary On
Versions: 1 2 3 4 5 6 7 8 9 10 11 12 13 14 15 16 17 18 19 20 21 22 23 24 25 26 27 28 29 30 31 32 33 34 35 36 37 38 39 40 41 42 43 44 45 46 47 48 49 50
000
ASUS45 KPSR 271610
RWRAZ

ARIZONA REGIONAL HOURLY WEATHER ROUNDUP
NATIONAL WEATHER SERVICE PHOENIX AZ
900 AM MST MON APR 27 2015

NOTE: FAIR INDICATES FEW OR NO CLOUDS BELOW 12,000 FEET WITH NO
SIGNIFICANT WEATHER AND/OR OBSTRUCTIONS TO VISIBILITY.

AZZ001>003-036-271700-
NORTHWEST ARIZONA

CITY           SKY/WX    TMP DP  RH WIND       PRES   REMARKS
BULLHEAD CITY  SUNNY     70  25  18 N28G38    30.01R
KINGMAN        SUNNY     58  27  30 N6        30.08R
$$

AZZ004>008-015-016-018-271700-
NORTH CENTRAL ARIZONA

CITY           SKY/WX    TMP DP  RH WIND       PRES   REMARKS
GRAND CANYON   SUNNY     50  30  46 E10G20    30.13R
WILLIAMS       SUNNY     50  32  50 NE20      30.17R
PRESCOTT       SUNNY     52  29  41 NW7       30.07S
FLAGSTAFF      SUNNY     47  31  53 E22G32    30.09R
PAYSON         SUNNY     55  34  44 NE9       30.04R
$$

AZZ009>014-017-271700-
NORTHEAST ARIZONA

CITY           SKY/WX    TMP DP  RH WIND       PRES   REMARKS
WINSLOW        SUNNY     54  35  48 N7        30.07R
SAINT JOHNS    PTSUNNY   50  38  63 N5        30.06R
WINDOW ROCK    CLOUDY    50  38  63 NE5       30.09R
SHOW LOW       PTSUNNY   41  32  70 N9        30.09R
$$

AZZ023-271700-
GREATER PHOENIX AREA

CITY           SKY/WX    TMP DP  RH WIND       PRES   REMARKS
PHOENIX        MOSUNNY   65  46  50 NW3       29.92R
BUCKEYE        SUNNY     68  37  32 N5        29.93S
GLENDALE       SUNNY     68  43  40 CALM      29.94R
DEER VALLEY    SUNNY     65  40  39 CALM      29.92S
SCOTTSDALE     SUNNY     64  46  52 CALM      29.94R
MESA-FALCON    SUNNY     63  45  51 N12       29.93R
MESA-GATEWAY   SUNNY     64  48  55 CALM      29.95R
CHANDLER       SUNNY     64  46  52 N7        29.93S
$$

AZZ027-028-271700-
SOUTHWEST MARICOPA COUNTY AND PINAL COUNTY

CITY           SKY/WX    TMP DP  RH WIND       PRES   REMARKS
CASA GRANDE    SUNNY     66  43  42 CALM      29.92R
$$

AZZ503-504-507>509-271700-
SOUTHEAST ARIZONA

CITY           SKY/WX    TMP DP  RH WIND       PRES   REMARKS
TUCSON         SUNNY     63  38  39 NW3       29.95S
RYAN FIELD       N/A     63  41  45 CALM      29.95S
NOGALES        SUNNY     60  33  36 SW5       29.95S
DOUGLAS        SUNNY     60  35  39 NW10      29.97R
SAFFORD        SUNNY     56  45  66 VRB5      29.96R
$$

AZZ020-021-025-026-031-271700-
SOUTHWEST ARIZONA

CITY           SKY/WX    TMP DP  RH WIND       PRES   REMARKS
YUMA           MOSUNNY   76  27  16 N21G28    29.93R
$$

CAZ031-033-041-043-047-048-061-271700-
SOUTHERN CALIFORNIA

CITY           SKY/WX    TMP DP  RH WIND       PRES   REMARKS
DOWNTOWN L.A.  SUNNY     71  48  43 CALM      29.94S
L.A. AIRPORT   MOSUNNY   68  51  54 CALM      29.96R
SAN DIEGO      MOSUNNY   68  50  52 CALM      29.96S
BURBANK        SUNNY     78  24  13 NE18G32   29.95R
ONTARIO        MOSUNNY   75  18  11 NE28G39   29.96R
RIVERSIDE      SUNNY     74  20  13 N12G20    29.99R
PALM SPRINGS   SUNNY     76  16  10 SE9       30.00S
EL CENTRO NAS  MOSUNNY   78  27  15 N17       29.97R
IMPERIAL       SUNNY     77  27  15 N17       29.94R
BLYTHE         SUNNY     75  25  15 N24G31    29.95R
NEEDLES        SUNNY     73  21  14 NE29G35   30.01S
$$

NVZ020-UTZ003-271700-
SOUTHERN NEVADA-UTAH

CITY           SKY/WX    TMP DP  RH WIND       PRES   REMARKS
LAS VEGAS      SUNNY     66  19  16 NW12G23   30.06R
SALT LAKE CITY MOSUNNY   49  38  65 NW7       30.25R
$$

NMZ009-TXZ055-271700-
NEW MEXICO-WEST TEXAS

CITY           SKY/WX    TMP DP  RH WIND       PRES   REMARKS
ALBUQUERQUE    PTSUNNY   51  39  63 CALM      30.05R
EL PASO        MOSUNNY   59  39  47 NE12      29.94R
$$


........................KEY........................
SKY/WX - SKY CONDITION/WEATHER
TMP    - TEMPERATURE IN FAHRENHEIT
DP     - DEW POINT IN FAHRENHEIT
RH     - RELATIVE HUMIDITY IN PERCENT
WIND   - DIRECTION AND SPEED IN MILES PER HOUR (MPH)
VRB    - VARIABLE WIND DIRECTION
PRES   - MEAN SEA LEVEL PRESSURE IN INCHES OF MERCURY
         F - FALLING PRESSURE   R - RISING PRESSURE
         S - STEADY PRESSURE
VSB    - VISIBILITY IN MILES
HX     - HEAT INDEX IN FAHRENHEIT
WCI    - WIND CHILL INDEX IN FAHRENHEIT
TC     - TEMPERATURE IN CELSIUS WHICH IS ALSO KNOWN AS
         TEMPERATURE IN CENTIGRADE
AFB    - AIR FORCE BASE
         LUKE AFB IS LUKE AIR FORCE BASE
         DAVIS-MONTHAN IS DAVIS-MONTHAN AIR FORCE BASE
NAS    - NAVAL AIR STATION
         EL CENTRO NAS IS EL CENTRO NAVAL AIR STATION
N/A    - NOT AVAILABLE



USA.gov is the U.S. government's official web portal to all federal, state and local government web resources and services.